Location: Raleigh
(35.7720°N, 78.6390°W)
Time: 13:41:03
(UTC-04:00)

JAS-2 - Visible Passes

Search period start: 19 April 2015 00:00
Search period end: 29 April 2015 00:00
Orbit: 801 x 1321 km, 98.5° (Epoch: 19 April)

Date Brightness Start Highest point End Pass type
(mag) Time Alt. Az. Time Alt. Az. Time Alt. Az.
19 Apr 10.2 05:03:42 10° NNE 05:10:13 57° E 05:15:58 10° S visible
20 Apr 11.8 04:10:18 10° NE 04:14:30 19° E 04:18:41 10° SE visible
20 Apr 9.7 05:53:47 10° N 06:00:17 56° WNW 06:05:57 10° SSW visible
21 Apr 10.3 04:58:56 10° NNE 05:05:15 52° E 05:10:51 10° S visible
22 Apr 11.9 04:05:46 10° NE 04:09:29 17° E 04:13:16 10° SE visible
22 Apr 9.6 05:48:57 10° N 05:55:22 60° WNW 06:00:59 10° SSW visible
23 Apr 10.4 04:54:10 10° NNE 05:00:17 47° E 05:05:44 10° S visible
24 Apr 11.9 04:01:17 10° NE 04:04:27 15° E 04:07:48 10° ESE visible
24 Apr 9.5 05:44:07 10° N 05:50:26 64° WNW 05:56:00 10° SSW visible
25 Apr 10.5 04:49:24 10° NNE 04:55:18 43° E 05:00:35 10° SSE visible
26 Apr 11.9 03:56:54 10° ENE 03:59:25 13° E 04:02:12 10° ESE visible
26 Apr 9.4 05:39:15 10° N 05:45:29 69° WNW 05:51:00 10° SSW visible
27 Apr 10.6 04:44:39 10° NNE 04:50:18 39° E 04:55:26 10° SSE visible
28 Apr 12.0 03:52:42 10° ENE 03:54:22 11° E 03:56:25 10° ESE visible
28 Apr 9.4 05:34:24 10° N 05:40:32 75° WNW 05:45:59 10° SSW visible
